Hourly Data Report for October 05, 2015

All times are specified in Local Standard Time (LST). Add 1 hour to adjust for Daylight Saving Time where and when it is observed.

POND INLET A
NUNAVUT

72°41'22.000" N
77°58'08.000" W
61.60 m
2403206
71095
YIO

Download Data

Hourly Data (October 2015)
Hourly Data Report for October 5, 2015
Temp Definition
°C
Dew Point Temp Definition
°C
Rel Hum Definition
%
Wind Dir Definition
10's deg

Wind Spd Definition
km/h
Visibility Definition
km
Stn Press Definition
kPa
Hmdx Definition


Wind Chill Definition


Weather Definition


TIME
00:00 Legend Double Dagger -3.0 -4.4 90 21 30 16.1 100.63   -10 Snow
01:00 Legend Double Dagger -2.1 -3.7 89 23 26 16.1 100.57   -9 Snow
02:00 Legend Double Dagger -1.7 -4.5 82 24 32 16.1 100.56   -9 Snow
03:00 Legend Double Dagger -2.6 -4.9 84 22 15 16.1 100.55   -8 LegendNANA
04:00 Legend Double Dagger -2.9 -4.9 86 24 17 16.1 100.51   -8 Snow
05:00 Legend Double Dagger -1.9 -6.4 71 25 30 16.1 100.46   -9 LegendNANA
06:00 Legend Double Dagger -2.4 -6.4 74 28 18 16.1 100.43   -8 Snow
07:00 Legend Double Dagger -2.5 -6.2 76 27 18 16.1 100.41   -8 LegendNANA
08:00 Legend Double Dagger -2.5 -7.2 71 26 22 16.1 100.37   -9 LegendNANA
09:00 Legend Double Dagger -2.3 -6.5 73 26 21 16.1 100.32   -8 LegendNANA
10:00 Legend Double Dagger -2.2 -5.8 77 27 13 16.1 100.28   -7 LegendNANA
11:00 Legend Double Dagger -2.3 -6.3 74 26 13 16.1 100.23   -7 LegendNANA
12:00 Legend Double Dagger -2.7 -5.5 81 26 5 16.1 100.20   -5 Snow
13:00 Legend Double Dagger -3.2 -4.9 88 14 5 16.1 100.16   -5 Snow
14:00 Legend Double Dagger -3.3 -4.7 90 17 8 16.1 100.12   -7 Snow
15:00 Legend Double Dagger -3.4 -5.1 88 15 9 16.1 100.09   -7 Snow
16:00 Legend Double Dagger -3.6 -5.3 88 16 8 16.1 100.10   -7 Snow
17:00 Legend Double Dagger -3.8 -5.1 91 16 9 16.1 100.09   -8 Snow
18:00 Legend Double Dagger -4.7 -6.0 91 18 9 16.1 100.06   -9 Snow
19:00 Legend Double Dagger -3.9 -5.2 91 17 9 16.1 100.05   -8 LegendNANA
20:00 Legend Double Dagger -3.9 -5.2 91 13 11 16.1 100.04   -8 Snow
21:00 Legend Double Dagger -2.9 -4.5 89   0 16.1 100.03     Snow
22:00 Legend Double Dagger -3.2 -4.6 90 9 8 16.1 100.01   -6 Snow
23:00 Legend Double Dagger -2.8 -4.4 89 6 8 16.1 99.98   -6 Snow

Notes on Data Quality.

Legend

  • E = Estimated
  • M = Missing
  • NA = Not Available
  • ‡ = Partner data that is not subject to review by the National Climate Archives
Date modified: